Home   Weather   Akron   Past weeks

Flag for USA Past Weather in Akron, Ohio, USA — Yesterday and Last 2 Weeks

Now
25 °F

Overcast.


Feels Like: 15 °F
Forecast: 20 / 28 °F
Wind: 10 mph from West

Location: Akron Fulton International Airport

Current Time: Dec 10, 2016 at 4:12:35 am

Latest Report: Dec 10, 2016 at 2:54 am


Visibility: 10 mi

Pressure: 30.45 "Hg

Humidity: 75%

Dew Point: 18 °F

Location of AkronLocation

Past Weather in Akron — Graph

°F

Akron Temperature Yesterday

Maximum temperature yesterday: 28 °F (at 12:54 pm)
Minimum temperature yesterday: 24 °F (at 12:54 am)
Average temperature yesterday: 26 °F

High & Low Weather Summary for the Past Weeks

 TemperatureHumidityPressure
High60 °F (Nov 29, 2:54 pm)93% (Dec 6, 7:54 pm)30.45 "Hg (Dec 6, 7:54 pm)
Low24 °F (Dec 8, 7:54 pm)33% (Nov 28, 8:54 pm)29.50 "Hg (Nov 30, 5:54 pm)
Average39 °F71%30.04 "Hg
* Reported Nov 25 2:54 am — Dec 10 2:54 am, Akron, Weather by CustomWeather, © 2016

Note: Actual official high and low records may vary slightly from our data, if they occured in-between our weather recording intervals... More about our weather records

Advertising

Akron Weather History for the Previous 24 Hours

Scroll right to see more
 ConditionsComfort  
Time TempWeatherWind HumidityBarometerVisibility
2:54 am
Sat, Dec 10
25 °FOvercast.10 mph75%30.45 "Hg10 mi
1:54 am25 °FOvercast.9 mph72%30.44 "Hg10 mi
12:54 am26 °FOvercast.10 mph74%30.44 "Hg10 mi
11:54 pm
Fri, Dec 9
26 °FLight snow. Overcast.14 mph74%30.45 "Hg6 mi
10:54 pm27 °FLight snow. Mostly cloudy.17 mph72%30.44 "Hg6 mi
9:54 pm27 °FOvercast.15 mph72%30.44 "Hg10 mi
8:54 pm27 °FOvercast.8 mph75%30.44 "Hg10 mi
8:01 pm27 °FPassing clouds.9 mph75%30.40 "Hg10 mi
6:54 pm26 °FPassing clouds.13 mph77%30.43 "Hg10 mi
5:54 pm27 °FOvercast.13 mph75%30.44 "Hg9 mi
4:54 pm27 °FMore clouds than sun.14 mph72%30.43 "Hg10 mi
3:54 pm28 °FMore clouds than sun.12 mph69%30.42 "Hg10 mi
2:54 pm28 °FMostly cloudy.13 mph69%30.41 "Hg10 mi
1:54 pm28 °FPartly sunny.15 mph69%30.40 "Hg10 mi
12:54 pm28 °FOvercast.15 mph69%30.40 "Hg10 mi
11:54 am27 °FOvercast.14 mph72%30.41 "Hg10 mi
10:54 am26 °FOvercast.13 mph74%30.42 "Hg7 mi
9:54 am25 °FOvercast.14 mph75%30.41 "Hg10 mi
8:54 am24 °FOvercast.13 mph77%30.39 "Hg8 mi
7:54 am24 °FOvercast.13 mph77%30.38 "Hg10 mi
6:54 am24 °FOvercast.10 mph75%30.37 "Hg10 mi
5:54 am24 °FOvercast.13 mph75%30.35 "Hg10 mi
4:54 am24 °FOvercast.13 mph75%30.34 "Hg10 mi
Weather by CustomWeather, © 2016

See weather overviewHow to use our weather pages